TimeEST,TemperatureF,Dew PointF,Humidity,Sea Level PressureIn,VisibilityMPH,Wind Direction,Wind SpeedMPH,Gust SpeedMPH,PrecipitationIn,Events,Conditions,WindDirDegrees,DateUTC
12:05 AM,21.2,19.4,93,29.74,4.0,NW,10.4,-,0.00,Snow,Light Snow,320,2012-12-30 05:05:00
12:23 AM,21.2,19.4,93,29.74,2.0,NW,13.8,-,0.00,Snow,Light Snow,310,2012-12-30 05:23:00
12:43 AM,21.2,19.4,93,29.73,4.0,NW,15.0,-,0.00,Snow,Light Snow,320,2012-12-30 05:43:00
12:56 AM,22.1,20.1,92,29.79,2.0,NW,16.1,21.9,0.00,Snow,Light Snow,310,2012-12-30 05:56:00
1:03 AM,23.0,19.4,86,29.74,1.8,WNW,18.4,-,0.00,Snow,Light Snow,300,2012-12-30 06:03:00
1:09 AM,21.2,19.4,93,29.74,3.0,NW,23.0,29.9,0.00,Snow,Light Snow,310,2012-12-30 06:09:00
1:23 AM,21.2,19.4,93,29.75,5.0,NW,18.4,28.8,0.00,Snow,Light Snow,320,2012-12-30 06:23:00
1:38 AM,21.2,19.4,93,29.76,5.0,NW,19.6,-,0.00,Snow,Light Snow,310,2012-12-30 06:38:00
1:56 AM,22.1,19.0,88,29.81,7.0,NW,20.7,26.5,0.00,Snow,Light Snow,320,2012-12-30 06:56:00
2:30 AM,21.2,19.4,93,29.78,3.0,NW,17.3,-,0.00,Snow,Light Snow,310,2012-12-30 07:30:00
2:46 AM,21.2,19.4,93,29.79,2.5,NW,12.7,-,0.00,Snow,Light Snow,310,2012-12-30 07:46:00
2:56 AM,22.1,20.1,92,29.83,2.5,NW,16.1,-,0.00,Snow,Light Snow,320,2012-12-30 07:56:00
3:08 AM,21.2,19.4,93,29.79,3.0,NW,18.4,-,0.00,Snow,Light Snow,310,2012-12-30 08:08:00
3:26 AM,21.2,19.4,93,29.79,3.0,NW,21.9,27.6,0.00,Snow,Light Snow,310,2012-12-30 08:26:00
3:29 AM,23.0,19.4,86,29.79,2.5,NW,21.9,27.6,0.00,Snow,Light Snow,310,2012-12-30 08:29:00
3:56 AM,23.0,19.0,85,29.85,3.0,NW,20.7,31.1,0.00,Snow,Light Snow,310,2012-12-30 08:56:00
4:43 AM,21.2,19.4,93,29.82,2.0,WNW,25.3,28.8,0.00,Snow,Light Snow,300,2012-12-30 09:43:00
4:56 AM,22.1,19.0,88,29.87,2.0,NW,26.5,31.1,0.00,Snow,Light Snow,320,2012-12-30 09:56:00
5:04 AM,21.2,19.4,93,29.83,3.0,NW,20.7,31.1,0.00,Snow,Light Snow,310,2012-12-30 10:04:00
5:56 AM,22.1,18.1,85,29.91,4.0,NW,17.3,-,0.00,Snow,Light Snow,310,2012-12-30 10:56:00
6:21 AM,21.2,17.6,86,29.88,3.0,NW,27.6,-,0.00,Snow,Light Snow,310,2012-12-30 11:21:00
6:56 AM,20.1,15.1,81,29.95,5.0,NW,24.2,33.4,0.00,Snow,Light Snow,310,2012-12-30 11:56:00
7:56 AM,20.1,16.2,85,29.99,2.0,NW,23.0,31.1,0.00,Snow,Light Snow,310,2012-12-30 12:56:00
8:56 AM,20.1,16.2,85,30.02,2.0,NW,20.7,29.9,0.00,Snow,Light Snow,310,2012-12-30 13:56:00
9:12 AM,19.4,15.8,86,29.98,0.8,NW,18.4,-,0.00,Snow,Light Snow,310,2012-12-30 14:12:00
9:56 AM,21.0,16.2,81,30.06,7.0,WNW,26.5,34.5,0.00,Snow,Light Snow,300,2012-12-30 14:56:00
9:59 AM,21.2,15.8,80,30.01,1.8,NW,24.2,34.5,0.00,Snow,Light Snow,310,2012-12-30 14:59:00
10:02 AM,21.2,15.8,80,30.01,7.0,NW,24.2,34.5,0.00,Snow,Light Snow,310,2012-12-30 15:02:00
10:56 AM,22.1,15.1,74,30.09,10.0,NW,32.2,40.3,0.00,Snow,Blowing Snow,310,2012-12-30 15:56:00
11:56 AM,22.1,15.1,74,30.10,10.0,WNW,27.6,35.7,N/A,Snow,Blowing Snow,300,2012-12-30 16:56:00
12:03 PM,21.2,15.8,80,30.05,2.5,WNW,25.3,31.1,N/A,Snow,Blowing Snow,300,2012-12-30 17:03:00
12:23 PM,21.2,15.8,80,30.04,10.0,WNW,26.5,31.1,N/A,Snow,Blowing Snow,300,2012-12-30 17:23:00
12:56 PM,22.1,16.2,78,30.10,4.0,WNW,26.5,31.1,0.00,Snow,Light Snow,300,2012-12-30 17:56:00
1:56 PM,22.1,17.1,81,30.12,1.0,NW,24.2,33.4,0.00,Snow,Light Snow,310,2012-12-30 18:56:00
1:58 PM,21.2,17.6,86,30.07,1.2,NW,21.9,33.4,0.00,Snow,Light Snow,310,2012-12-30 18:58:00
2:05 PM,21.2,17.6,86,30.07,1.0,NW,21.9,27.6,0.00,Snow,Light Snow,310,2012-12-30 19:05:00
2:20 PM,21.2,17.6,86,30.08,7.0,WNW,25.3,29.9,0.00,Snow,Light Snow,300,2012-12-30 19:20:00
2:56 PM,23.0,16.2,75,30.15,7.0,WNW,26.5,34.5,0.00,Snow,Blowing Snow,300,2012-12-30 19:56:00
2:58 PM,23.0,15.8,74,30.10,1.8,WNW,28.8,34.5,N/A,Snow,Blowing Snow,300,2012-12-30 19:58:00
3:04 PM,23.0,15.8,74,30.10,7.0,NW,24.2,34.5,N/A,Snow,Blowing Snow,310,2012-12-30 20:04:00
3:56 PM,22.1,16.2,78,30.18,7.0,NW,21.9,-,N/A,,Mostly Cloudy,310,2012-12-30 20:56:00
4:56 PM,22.1,16.2,78,30.22,10.0,WNW,17.3,26.5,N/A,,Mostly Cloudy,300,2012-12-30 21:56:00
5:56 PM,21.0,14.0,74,30.24,10.0,WNW,18.4,-,N/A,,Mostly Cloudy,300,2012-12-30 22:56:00
6:56 PM,21.0,13.1,71,30.24,10.0,WNW,12.7,-,N/A,,Mostly Cloudy,300,2012-12-30 23:56:00
7:56 PM,21.0,14.0,74,30.24,10.0,NW,8.1,-,N/A,,Mostly Cloudy,310,2012-12-31 00:56:00
8:56 PM,23.0,14.0,68,30.23,10.0,WNW,10.4,-,N/A,,Overcast,300,2012-12-31 01:56:00
9:56 PM,24.1,14.0,65,30.23,10.0,West,13.8,-,N/A,,Overcast,280,2012-12-31 02:56:00
10:56 PM,23.0,16.2,75,30.22,10.0,WNW,6.9,-,N/A,,Overcast,290,2012-12-31 03:56:00
11:56 PM,24.1,15.1,69,30.21,10.0,West,6.9,-,N/A,,Overcast,280,2012-12-31 04:56:00